STARLINK-31823, 59794

Orbit data source: Space-Track

STARLINK-31823, 59794 is a payload satellite owned by SpaceX/Seattle (US) in LEO that was launched on Sat, 18 May 2024 UTC via an FALCON 9 launch vehicle from the Air Force Eastern Test Range (AFETR). Payload-class satellites include a variety of spacecraft equipped with specific instruments for various scientific and technological missions. These include communications satellites like Starlink; space stations such as the ISS; scientific satellites like the Hubble; Earth observation satellites from companies like Planet Labs, Umbra, and HawkEye 360; GPS; miniature CubeSats for education and research; and military/defense satellites.

Loading next visibility...
Identifier
59794, 2024-093N
Orbit
LEO
Country
Flag of USUS
Related business
Manufacturer
SpaceX/Seattle
Mission
Operational spacecraft
Bus & Motor
STARLINK V2M, Unknown motor
Mass
730 kg wet, ~700 kg dry
Launch date (UTC)
2024-05-18 (1 year ago)
Launch vehicle
FALCON 9
Launch site
Air Force Eastern Test Range (AFETR)
Object type
Payload
Rocket body
Debris
Shape & HBR
Unknown
Radar Cross Section
Large (>1 m²)

Expand to show TLE details & history
Last TLE update: 10 hours ago

TLE from 10 hours ago
0 STARLINK-31823
1 59794U 24093N   25260.92359547  .00000403  00000-0  24170-4 0  9996
2 59794  43.0017 104.5379 0001357 281.8131  78.2568 15.27582573 76273
Epoch: 2025-09-17T22:09Z
TLE epoch observation values (Epoch: 2025-09-17T22:09:58.648Z)
Latitude
-0.00005°
Longitude
134.9509°
Altitude
482.628 km
Speed
7.626 km/s
True Right ascension
06h 58m 09s
True Declination
0° 00' 00"
Sunlit
Object was in daylight at epoch
Visualization orbit readout
Latitude
Unknown
Longitude
Unknown
Altitude
Unknown
Speed
Unknown
Apparent Right ascension
Unknown
Apparent Declination
Unknown
Sunlit
N/A
Visualization observer readout
Local Sidereal Time
00:59:19
Azimuth
Unknown
Elevation
Unknown
Doppler factor
Unknown
Orbital elements
Apogee altitude
485.918 km
Perigee altitude
484.055 km
Semi-major axis
6,863.123 km
Eccentricity
0.00014
Inclination
43.0017°
RAAN
104.5379°
Arg. of periapsis
281.8131°
True anomaly
78.27203°
Mean anomaly
78.2568°
Eccentric anomaly
78.26441°
Mean motion
3.81734 °/min
Orbital period
94.31 mins
BSTAR
0.00002417
Loading maneuver chart data...
Computing Atmospheric mass density...
Loading historical data...
Loading historical data...
Loading historical data...
Loading historical data...
Loading historical data...
Loading historical data...
Loading historical data...

Documentation

Showing up to 5 results
|